EW8277 Weather Reports


time (UTC)temp
F
wind
direction
speed
knots
gust
knots
rain 1hr
in
rain 24hr
in
rain mn
in
humidity
%
barometer
mb
20260505080054 57 98 0.0 0.0 0.00 0.00 0.00 62 1014.4
20260505074547 57 98 0.0 0.0 0.00 0.00 0.00 64 1014.3
20260505073034 58 98 0.0 0.0 0.00 0.00 0.00 67 1014.3
20260505071525 58 98 0.0 0.0 0.00 0.00 0.00 68 1014.1
20260505070023 59 98 0.0 0.0 0.00 0.00 0.00 69 1014.1
20260505064520 60 98 0.0 0.0 0.00 0.00 0.00 70 1014.1
20260505063018 60 98 0.0 0.0 0.00 0.00 0.00 70 1014.1
20260505061518 61 98 0.0 0.0 0.00 0.00 0.00 70 1014.1
20260505060017 62 98 0.0 0.0 0.00 0.00 0.00 70 1014.1
20260505054515 62 98 0.0 0.0 0.00 0.00 0.00 70 1014.0
20260505053106 63 98 0.0 0.0 0.00 0.00 0.00 69 1014.0
20260505051558 63 98 0.0 0.0 0.00 0.00 0.00 69 1014.2
20260505050125 63 98 0.0 0.0 0.00 0.00 0.00 68 1014.2
20260505041603 65 101 0.0 0.0 0.00 0.00 0.00 67 1014.2
20260505040056 65 100 0.0 0.0 0.00 0.00 0.00 66 1014.2
20260505034547 66 101 0.0 0.0 0.00 0.00 0.00 64 1014.2
20260505033028 66 70 0.0 0.0 0.00 0.00 0.00 63 1014.3
20260505031526 66 62 0.0 0.0 0.00 0.00 0.00 60 1014.2
20260505030009 67 106 0.0 0.0 0.00 0.00 0.00 58 1014.2
20260505024505 67 181 0.0 0.0 0.00 0.00 0.00 56 1014.1
20260505023003 67 251 0.0 0.0 0.00 0.00 0.00 54 1014.0
20260505021600 67 251 0.0 0.0 0.00 0.00 0.00 54 1013.8
20260505020059 67 251 0.0 0.0 0.00 0.00 0.00 54 1013.7
20260505014621 67 251 0.0 0.0 0.00 0.00 0.00 54 1013.7
20260505013055 68 251 0.0 0.0 0.00 0.00 0.00 54 1013.4
20260505011551 69 251 0.0 0.0 0.00 0.00 0.00 53 1013.3
20260505010049 69 251 0.0 0.0 0.00 0.00 0.00 51 1013.1
20260505004535 70 251 0.0 0.0 0.00 0.00 0.00 51 1012.9
20260505003024 71 251 0.0 0.0 0.00 0.00 0.00 48 1012.5
20260505001503 74 251 0.0 0.0 0.00 0.00 0.00 44 1012.5
20260505000137 75 251 0.0 0.0 0.00 0.00 0.00 41 1012.4
20260504234603 77 251 0.0 0.0 0.00 0.00 0.00 37 1012.3
20260504233045 79 251 0.0 0.0 0.00 0.00 0.00 36 1012.2
20260504231539 79 251 0.0 0.0 0.00 0.00 0.00 35 1012.2
20260504230037 80 234 0.0 0.0 0.00 0.00 0.00 35 1012.2
20260504224535 80 327 0.0 0.0 0.00 0.00 0.00 36 1012.3
20260504223041 80 295 0.0 2.6 0.00 0.00 0.00 36 1012.3
20260504221535 81 276 0.0 2.6 0.00 0.00 0.00 34 1012.3
20260504220031 81 200 0.0 1.7 0.00 0.00 0.00 35 1012.3
20260504214511 81 298 0.0 0.0 0.00 0.00 0.00 34 1012.4
20260504213018 81 213 0.0 0.0 0.00 0.00 0.00 35 1012.4
20260504211546 81 332 0.0 3.5 0.00 0.00 0.00 34 1012.3
20260504210047 82 312 0.0 0.0 0.00 0.00 0.00 34 1012.5
20260504204527 81 340 0.0 0.0 0.00 0.00 0.00 33 1012.5
20260504203024 81 98 0.0 1.7 0.00 0.00 0.00 33 1012.7
20260504201504 82 261 0.0 3.5 0.00 0.00 0.00 33 1012.8
20260504200059 81 236 0.0 1.7 0.00 0.00 0.00 34 1012.8
20260504194549 80 261 0.0 3.5 0.00 0.00 0.00 35 1013.0
20260504193040 80 171 0.0 2.6 0.00 0.00 0.00 34 1013.3
20260504191519 80 133 0.0 2.6 0.00 0.00 0.00 35 1013.5
20260504190014 80 251 0.0 5.2 0.00 0.00 0.00 33 1013.8
20260504184513 79 327 0.0 1.7 0.00 0.00 0.00 34 1013.7
20260504183006 79 251 0.0 3.5 0.00 0.00 0.00 34 1014.0
20260504181606 78 237 0.0 0.9 0.00 0.00 0.00 32 1014.3
20260504180057 78 256 0.0 0.0 0.00 0.00 0.00 33 1014.3
20260504174601 76 129 0.0 0.9 0.00 0.00 0.00 34 1014.4
20260504173052 78 130 0.0 1.7 0.00 0.00 0.00 34 1014.6
20260504171526 77 307 0.0 0.9 0.00 0.00 0.00 36 1014.8
20260504100103 40 236 0.0 0.0 0.00 0.00 0.00 5 1016.8
20260504081557 41 236 0.0 0.0 0.00 0.00 0.00 24 1016.6